Miscellaneous Local Product
Issued by NWS Hastings, NE

Home | Current Version | Previous Version | Graphics & Text | Print | Product List | Glossary On
Versions: 1 2 3 4 5 6 7 8 9 10 11 12 13 14 15 16 17 18 19 20 21 22 23 24 25 26 27 28 29 30 31 32 33 34 35 36 37 38 39 40 41 42 43 44 45 46 47 48 49 50
000
AXUS43 KGID 280702
MISGRI

GID CWA HOURLY WEATHER ROUNDUP
NATIONAL WEATHER SERVICE HASTINGS NE
200 AM CDT MON JUL 28 2014

NOTE: "FAIR" INDICATES FEW OR NO CLOUDS BELOW 12,000 FEET WITH NO
SIGNIFICANT WEATHER AND/OR OBSTRUCTIONS TO VISIBILITY.

...SOUTH CENTRAL NEBRASKA...

CITY           SKY/WX    TMP DP  RH WIND       PRES   REMARKS
GRAND ISLAND   CLEAR     60  57  89 NE6       30.27R
HASTINGS       CLEAR     62  56  80 NE5       30.26R
KEARNEY        CLEAR     61  55  82 N8        30.27S
ORD            CLEAR     56  55  97 W3        30.27S
YORK             N/A     59  59 100 NE6       30.26R
AURORA         CLEAR     62  60  94 NE7       30.26R
LEXINGTON      CLEAR     60  55  84 NE3       30.29R
HOLDREGE       CLEAR     61  57  87 NE5       30.27S
HEBRON         CLEAR     61  56  83 CALM      30.23R

...NEBRASKA PANHANDLE...

CITY           SKY/WX    TMP DP  RH WIND       PRES   REMARKS
CHADRON        CLEAR     61  50  67 VRB3      30.32S
ALLIANCE       CLEAR     57  48  72 SE7       30.33S
SCOTTSBLUFF    PTCLDY    64  51  62 E9        30.33R
SIDNEY         PTCLDY    66  48  52 SE7       30.36R

...WESTERN AND NORTH CENTRAL NEBRASKA...

CITY           SKY/WX    TMP DP  RH WIND       PRES   REMARKS
VALENTINE      CLEAR     57  50  77 NE3       30.31S
AINSWORTH      CLEAR     56  52  88 E6        30.31S
ONEILL         CLEAR     56  53  88 N3        30.29S
BROKEN BOW     CLEAR     59  53  80 CALM      30.30R
IMPERIAL       CLEAR     64  51  62 E5        30.31S
NORTH PLATTE   CLEAR     59  50  72 CALM      30.31R
MCCOOK         PTCLDY    62  53  72 NE3       30.28R

...EASTERN NEBRASKA...

CITY           SKY/WX    TMP DP  RH WIND       PRES   REMARKS
NORFOLK        CLEAR     59  54  83 NW6       30.25S
SO SIOUX CITY  PTCLDY    61  56  83 N7        30.22S
ALBION         CLEAR     57  54  89 NW5       30.27S
OMAHA EPPLEY   CLEAR     61  55  81 NW5       30.20S
OFFUTT AFB     CLEAR     65  58  79 N9        30.19S
MILLARD        CLEAR     65  56  74 N7        30.20S
LINCOLN        CLEAR     64  57  78 N9        30.23S
NEBRASKA CITY  CLEAR     61  57  87 N6        30.19S
BEATRICE       CLEAR     63  58  83 N9        30.21R
FALLS CITY     NOT AVBL

...NORTHERN KANSAS...

CITY           SKY/WX    TMP DP  RH WIND       PRES   REMARKS
GOODLAND       CLOUDY    66  51  58 SE6       30.32R
HILL CITY      PTCLDY    64  55  72 CALM      30.26R
NORTON         SUNNY     61  48  63 CALM      30.25S
PHILLIPSBURG   CLEAR     66  52  59 N7        30.24S
SMITH CENTER   CLEAR     64  55  72 NE8       30.24R
HAYS           PTCLDY    66  52  59 CALM      30.24S
RUSSELL        PTCLDY    68  54  60 E3        30.22R
CONCORDIA      CLEAR     65  59  81 N5        30.22R
SALINA         CLEAR     72  56  57 N5        30.19S
TOPEKA         CLEAR     67  59  75 N5        30.17R



USA.gov is the U.S. government's official web portal to all federal, state and local government web resources and services.